Location: *
(10.5081°N, 66.9194°W)
Time: 04:46:24
(UTC+00:00)

STARLINK-1175 - Pass Details

Date: 30 March 2020
Orbit: 302 x 304 km, 53.0° (Epoch: 25 May)

Event Time Altitude Azimuth Distance (km) Brightness Sun altitude
Rises 22:45:53 0° 333° (NNW) 1,965 6.9 -2.7°
Reaches altitude 10° 22:47:51 10° 341° (NNW) 1,147 5.6 -3.1°
Maximum altitude 22:50:17 41° 54° (NE) 442 2.8 -3.7°
Drops below altitude 10° 22:52:44 10° 128° (SE) 1,152 4.8 -4.3°
Enters shadow 22:54:29 - 135° (SE) 1,880 5.9 -4.8°
